Time,TemperatureF,DewpointF,PressureIn,WindDirection,WindDirectionDegrees,WindSpeedMPH,WindSpeedGustMPH,Humidity,HourlyPrecipIn,Conditions,Clouds,dailyrainin,SoftwareType,DateUTC
2013-04-21 00:01:00,46.6,35.8,0.00,North,0,0.0,0.0,66,0.00,,,0.00,WUHU21623XXSP,2013-04-21 04:01:00,
2013-04-21 00:06:00,46.6,35.8,0.00,North,0,0.0,0.0,66,0.00,,,0.00,WUHU21623XXSP,2013-04-21 04:06:00,
2013-04-21 00:11:00,46.2,35.5,0.00,North,0,0.0,0.0,66,0.00,,,0.00,WUHU21623XXSP,2013-04-21 04:11:00,
2013-04-21 00:16:00,46.2,35.5,0.00,North,0,0.0,0.0,66,0.00,,,0.00,WUHU21623XXSP,2013-04-21 04:16:00,
2013-04-21 00:21:00,46.0,35.3,0.00,North,0,0.0,0.0,66,0.00,,,0.00,WUHU21623XXSP,2013-04-21 04:21:00,
2013-04-21 00:26:00,45.7,34.9,0.00,North,0,0.0,0.0,66,0.00,,,0.00,WUHU21623XXSP,2013-04-21 04:26:00,
2013-04-21 00:31:00,45.7,34.9,0.00,North,0,0.0,0.0,66,0.00,,,0.00,WUHU21623XXSP,2013-04-21 04:31:00,
2013-04-21 00:36:00,45.5,35.1,0.00,North,0,0.0,0.0,67,0.00,,,0.00,WUHU21623XXSP,2013-04-21 04:36:00,
2013-04-21 00:41:00,45.3,35.0,0.00,North,0,0.0,0.0,67,0.00,,,0.00,WUHU21623XXSP,2013-04-21 04:41:00,
2013-04-21 00:46:00,45.3,35.0,0.00,North,0,0.0,0.0,67,0.00,,,0.00,WUHU21623XXSP,2013-04-21 04:46:00,
2013-04-21 00:51:00,45.3,35.4,0.00,North,0,0.0,0.0,68,0.00,,,0.00,WUHU21623XXSP,2013-04-21 04:51:00,
2013-04-21 00:56:00,45.3,35.4,0.00,North,0,0.0,0.0,68,0.00,,,0.00,WUHU21623XXSP,2013-04-21 04:56:00,
2013-04-21 01:01:00,45.1,35.2,0.00,North,0,0.0,0.0,68,0.00,,,0.00,WUHU21623XXSP,2013-04-21 05:01:00,
2013-04-21 01:06:00,45.1,35.2,0.00,North,0,0.0,0.0,68,0.00,,,0.00,WUHU21623XXSP,2013-04-21 05:06:00,
2013-04-21 01:11:00,45.1,35.2,0.00,North,0,0.0,0.0,68,0.00,,,0.00,WUHU21623XXSP,2013-04-21 05:11:00,
2013-04-21 01:16:00,45.0,34.8,0.00,North,0,0.0,0.0,67,0.00,,,0.00,WUHU21623XXSP,2013-04-21 05:16:00,
2013-04-21 01:21:00,45.0,34.3,0.00,North,0,0.0,0.0,66,0.00,,,0.00,WUHU21623XXSP,2013-04-21 05:21:00,
2013-04-21 01:26:00,44.8,34.1,0.00,North,0,0.0,0.0,66,0.00,,,0.00,WUHU21623XXSP,2013-04-21 05:26:00,
2013-04-21 01:32:00,44.8,33.7,0.00,North,0,0.0,0.0,65,0.00,,,0.00,WUHU21623XXSP,2013-04-21 05:32:00,
2013-04-21 01:37:00,45.0,33.5,0.00,North,0,0.0,0.0,64,0.00,,,0.00,WUHU21623XXSP,2013-04-21 05:37:00,
2013-04-21 01:42:00,45.0,33.5,0.00,North,0,0.0,0.0,64,0.00,,,0.00,WUHU21623XXSP,2013-04-21 05:42:00,
2013-04-21 01:47:00,45.0,33.5,0.00,North,0,0.0,0.0,63,0.00,,,0.00,WUHU21623XXSP,2013-04-21 05:47:00,
2013-04-21 01:52:00,45.0,33.1,0.00,North,0,0.0,0.0,63,0.00,,,0.00,WUHU21623XXSP,2013-04-21 05:52:00,
2013-04-21 01:57:00,45.1,32.9,0.00,North,0,0.0,0.0,62,0.00,,,0.00,WUHU21623XXSP,2013-04-21 05:57:00,
2013-04-21 02:02:00,45.1,32.9,0.00,North,0,0.0,0.0,62,0.00,,,0.00,WUHU21623XXSP,2013-04-21 06:02:00,
2013-04-21 02:07:00,45.0,32.7,0.00,North,0,0.0,0.0,62,0.00,,,0.00,WUHU21623XXSP,2013-04-21 06:07:00,
2013-04-21 02:12:00,45.0,32.7,0.00,North,0,0.0,0.0,62,0.00,,,0.00,WUHU21623XXSP,2013-04-21 06:12:00,
2013-04-21 02:17:00,45.0,32.3,0.00,North,0,0.0,0.0,61,0.00,,,0.00,WUHU21623XXSP,2013-04-21 06:17:00,
2013-04-21 02:22:00,45.0,32.7,0.00,North,0,0.0,0.0,62,0.00,,,0.00,WUHU21623XXSP,2013-04-21 06:22:00,
2013-04-21 02:27:00,44.8,32.6,0.00,North,0,0.0,0.0,62,0.00,,,0.00,WUHU21623XXSP,2013-04-21 06:27:00,
2013-04-21 02:32:00,44.8,32.6,0.00,North,0,0.0,0.0,62,0.00,,,0.00,WUHU21623XXSP,2013-04-21 06:32:00,
2013-04-21 02:37:00,44.6,32.4,0.00,North,0,0.0,0.0,62,0.00,,,0.00,WUHU21623XXSP,2013-04-21 06:37:00,
2013-04-21 02:42:00,44.6,32.4,0.00,North,0,0.0,0.0,62,0.00,,,0.00,WUHU21623XXSP,2013-04-21 06:42:00,
2013-04-21 02:47:00,44.4,32.2,0.00,North,0,0.0,0.0,62,0.00,,,0.00,WUHU21623XXSP,2013-04-21 06:47:00,
2013-04-21 02:52:00,44.4,32.2,0.00,North,0,0.0,0.0,62,0.00,,,0.00,WUHU21623XXSP,2013-04-21 06:52:00,
2013-04-21 02:57:00,44.2,32.0,0.00,North,0,0.0,0.0,62,0.00,,,0.00,WUHU21623XXSP,2013-04-21 06:57:00,
2013-04-21 03:02:00,44.2,32.0,0.00,North,0,0.0,0.0,62,0.00,,,0.00,WUHU21623XXSP,2013-04-21 07:02:00,
2013-04-21 03:07:00,43.9,31.7,0.00,North,0,0.0,0.0,62,0.00,,,0.00,WUHU21623XXSP,2013-04-21 07:07:00,
2013-04-21 03:12:00,43.9,31.7,0.00,North,0,0.0,0.0,62,0.00,,,0.00,WUHU21623XXSP,2013-04-21 07:12:00,
2013-04-21 03:17:00,43.9,31.7,0.00,North,0,0.0,0.0,62,0.00,,,0.00,WUHU21623XXSP,2013-04-21 07:17:00,
2013-04-21 03:22:00,43.7,31.5,0.00,North,0,0.0,0.0,62,0.00,,,0.00,WUHU21623XXSP,2013-04-21 07:22:00,
2013-04-21 03:27:00,43.7,31.5,0.00,North,0,0.0,0.0,62,0.00,,,0.00,WUHU21623XXSP,2013-04-21 07:27:00,
2013-04-21 03:32:00,43.5,31.7,0.00,North,0,0.0,0.0,63,0.00,,,0.00,WUHU21623XXSP,2013-04-21 07:32:00,
2013-04-21 03:37:00,43.5,31.7,0.00,North,0,0.0,0.0,63,0.00,,,0.00,WUHU21623XXSP,2013-04-21 07:37:00,
2013-04-21 03:42:00,43.3,31.6,0.00,North,0,0.0,0.0,63,0.00,,,0.00,WUHU21623XXSP,2013-04-21 07:42:00,
2013-04-21 03:47:00,43.3,31.6,0.00,North,0,0.0,0.0,63,0.00,,,0.00,WUHU21623XXSP,2013-04-21 07:47:00,
2013-04-21 03:52:00,43.2,31.4,0.00,North,0,0.0,0.0,63,0.00,,,0.00,WUHU21623XXSP,2013-04-21 07:52:00,
2013-04-21 03:57:00,43.0,31.2,0.00,North,0,0.0,0.0,63,0.00,,,0.00,WUHU21623XXSP,2013-04-21 07:57:00,
2013-04-21 04:02:00,43.0,31.6,0.00,North,0,0.0,0.0,64,0.00,,,0.00,WUHU21623XXSP,2013-04-21 08:02:00,
2013-04-21 04:07:00,42.6,31.2,0.00,North,0,0.0,0.0,64,0.00,,,0.00,WUHU21623XXSP,2013-04-21 08:07:00,
2013-04-21 04:12:00,42.6,31.2,0.00,North,0,0.0,0.0,64,0.00,,,0.00,WUHU21623XXSP,2013-04-21 08:12:00,
2013-04-21 04:17:00,42.6,31.2,0.00,North,0,0.0,0.0,64,0.00,,,0.00,WUHU21623XXSP,2013-04-21 08:17:00,
2013-04-21 04:22:00,42.4,31.5,0.00,North,0,0.0,0.0,65,0.00,,,0.00,WUHU21623XXSP,2013-04-21 08:22:00,
2013-04-21 04:27:00,42.4,31.5,0.00,North,0,0.0,0.0,65,0.00,,,0.00,WUHU21623XXSP,2013-04-21 08:27:00,
2013-04-21 04:32:00,42.3,31.3,0.00,North,0,0.0,0.0,65,0.00,,,0.00,WUHU21623XXSP,2013-04-21 08:32:00,
2013-04-21 04:37:00,42.1,31.1,0.00,North,0,0.0,0.0,65,0.00,,,0.00,WUHU21623XXSP,2013-04-21 08:37:00,
2013-04-21 04:42:00,41.9,31.4,0.00,North,0,0.0,0.0,66,0.00,,,0.00,WUHU21623XXSP,2013-04-21 08:42:00,
2013-04-21 04:47:00,41.7,31.2,0.00,North,0,0.0,0.0,66,0.00,,,0.00,WUHU21623XXSP,2013-04-21 08:47:00,
2013-04-21 04:52:00,41.5,31.0,0.00,North,0,0.0,0.0,66,0.00,,,0.00,WUHU21623XXSP,2013-04-21 08:52:00,
2013-04-21 04:57:00,41.5,31.0,0.00,North,0,0.0,0.0,66,0.00,,,0.00,WUHU21623XXSP,2013-04-21 08:57:00,
2013-04-21 05:02:00,41.5,31.0,0.00,North,0,0.0,0.0,66,0.00,,,0.00,WUHU21623XXSP,2013-04-21 09:02:00,
2013-04-21 05:07:00,41.2,31.0,0.00,North,0,0.0,0.0,67,0.00,,,0.00,WUHU21623XXSP,2013-04-21 09:07:00,
2013-04-21 05:12:00,41.2,31.0,0.00,North,0,0.0,0.0,67,0.00,,,0.00,WUHU21623XXSP,2013-04-21 09:12:00,
2013-04-21 05:17:00,41.0,30.9,0.00,North,0,0.0,0.0,67,0.00,,,0.00,WUHU21623XXSP,2013-04-21 09:17:00,
2013-04-21 05:22:00,40.8,30.7,0.00,North,0,0.0,0.0,67,0.00,,,0.00,WUHU21623XXSP,2013-04-21 09:22:00,
2013-04-21 05:27:00,40.6,30.5,0.00,North,0,0.0,0.0,67,0.00,,,0.00,WUHU21623XXSP,2013-04-21 09:27:00,
2013-04-21 05:32:00,40.5,30.3,0.00,North,0,0.0,0.0,67,0.00,,,0.00,WUHU21623XXSP,2013-04-21 09:32:00,
2013-04-21 05:37:00,40.3,30.1,0.00,North,0,0.0,0.0,67,0.00,,,0.00,WUHU21623XXSP,2013-04-21 09:37:00,
2013-04-21 05:42:00,40.1,30.3,0.00,North,0,0.0,0.0,68,0.00,,,0.00,WUHU21623XXSP,2013-04-21 09:42:00,
2013-04-21 05:47:00,39.9,30.2,0.00,North,0,0.0,0.0,68,0.00,,,0.00,WUHU21623XXSP,2013-04-21 09:47:00,
2013-04-21 05:52:00,39.9,30.5,0.00,North,0,0.0,0.0,69,0.00,,,0.00,WUHU21623XXSP,2013-04-21 09:52:00,
2013-04-21 05:57:00,39.7,30.4,0.00,North,0,0.0,0.0,69,0.00,,,0.00,WUHU21623XXSP,2013-04-21 09:57:00,
2013-04-21 06:02:00,39.7,30.4,0.00,North,0,0.0,0.0,69,0.00,,,0.00,WUHU21623XXSP,2013-04-21 10:02:00,
2013-04-21 06:07:00,39.4,29.6,0.00,North,0,0.0,0.0,68,0.00,,,0.00,WUHU21623XXSP,2013-04-21 10:07:00,
2013-04-21 06:12:00,39.4,30.0,0.00,North,0,0.0,0.0,69,0.00,,,0.00,WUHU21623XXSP,2013-04-21 10:12:00,
2013-04-21 06:17:00,39.0,29.7,0.00,North,0,0.0,0.0,69,0.00,,,0.00,WUHU21623XXSP,2013-04-21 10:17:00,
2013-04-21 06:22:00,39.0,29.7,0.00,North,0,0.0,0.0,69,0.00,,,0.00,WUHU21623XXSP,2013-04-21 10:22:00,
2013-04-21 06:27:00,39.0,29.7,0.00,North,0,0.0,0.0,69,0.00,,,0.00,WUHU21623XXSP,2013-04-21 10:27:00,
2013-04-21 06:32:00,38.8,29.9,0.00,North,0,0.0,0.0,70,0.00,,,0.00,WUHU21623XXSP,2013-04-21 10:32:00,
2013-04-21 06:37:00,38.8,29.9,0.00,North,0,0.0,0.0,70,0.00,,,0.00,WUHU21623XXSP,2013-04-21 10:37:00,
2013-04-21 06:42:00,38.8,29.9,0.00,North,0,0.0,0.0,70,0.00,,,0.00,WUHU21623XXSP,2013-04-21 10:42:00,
2013-04-21 06:47:00,38.8,29.9,0.00,North,0,0.0,0.0,70,0.00,,,0.00,WUHU21623XXSP,2013-04-21 10:47:00,
2013-04-21 06:52:00,38.8,29.9,0.00,North,0,0.0,0.0,70,0.00,,,0.00,WUHU21623XXSP,2013-04-21 10:52:00,
2013-04-21 06:57:00,38.8,29.9,0.00,North,0,0.0,0.0,70,0.00,,,0.00,WUHU21623XXSP,2013-04-21 10:57:00,
2013-04-21 07:02:00,38.8,29.9,0.00,North,0,0.0,0.0,70,0.00,,,0.00,WUHU21623XXSP,2013-04-21 11:02:00,
2013-04-21 07:07:00,38.8,30.2,0.00,North,0,0.0,0.0,71,0.00,,,0.00,WUHU21623XXSP,2013-04-21 11:07:00,
2013-04-21 07:12:00,38.8,30.2,0.00,North,0,0.0,0.0,71,0.00,,,0.00,WUHU21623XXSP,2013-04-21 11:12:00,
2013-04-21 07:17:00,38.8,29.9,0.00,North,0,0.0,0.0,70,0.00,,,0.00,WUHU21623XXSP,2013-04-21 11:17:00,
2013-04-21 07:22:00,39.0,30.0,0.00,North,0,0.0,0.0,70,0.00,,,0.00,WUHU21623XXSP,2013-04-21 11:22:00,
2013-04-21 07:27:00,39.0,30.0,0.00,North,0,0.0,0.0,70,0.00,,,0.00,WUHU21623XXSP,2013-04-21 11:27:00,
2013-04-21 07:32:00,39.2,30.2,0.00,North,0,0.0,0.0,70,0.00,,,0.00,WUHU21623XXSP,2013-04-21 11:32:00,
2013-04-21 07:37:00,39.4,30.0,0.00,North,0,0.0,0.0,69,0.00,,,0.00,WUHU21623XXSP,2013-04-21 11:37:00,
2013-04-21 07:42:00,39.6,29.8,0.00,North,0,0.0,0.0,68,0.00,,,0.00,WUHU21623XXSP,2013-04-21 11:42:00,
2013-04-21 07:47:00,39.9,30.2,0.00,North,0,0.0,0.0,68,0.00,,,0.00,WUHU21623XXSP,2013-04-21 11:47:00,
2013-04-21 07:52:00,40.3,30.2,0.00,North,0,0.0,0.0,68,0.00,,,0.00,WUHU21623XXSP,2013-04-21 11:52:00,
2013-04-21 07:57:00,40.6,30.5,0.00,North,0,0.0,0.0,67,0.00,,,0.00,WUHU21623XXSP,2013-04-21 11:57:00,
2013-04-21 08:02:00,41.2,30.6,0.00,North,0,0.0,0.0,66,0.00,,,0.00,WUHU21623XXSP,2013-04-21 12:02:00,
2013-04-21 08:07:00,41.4,30.8,0.00,North,0,0.0,0.0,66,0.00,,,0.00,WUHU21623XXSP,2013-04-21 12:07:00,
2013-04-21 08:12:00,41.7,30.6,0.00,North,0,0.0,0.0,65,0.00,,,0.00,WUHU21623XXSP,2013-04-21 12:12:00,
2013-04-21 08:17:00,42.1,30.6,0.00,North,0,0.0,0.0,64,0.00,,,0.00,WUHU21623XXSP,2013-04-21 12:17:00,
2013-04-21 08:22:00,42.4,30.3,0.00,North,0,0.0,0.0,62,0.00,,,0.00,WUHU21623XXSP,2013-04-21 12:22:00,
2013-04-21 08:27:00,42.6,30.5,0.00,North,0,0.0,0.0,62,0.00,,,0.00,WUHU21623XXSP,2013-04-21 12:27:00,
2013-04-21 08:32:00,43.0,30.2,0.00,North,0,0.0,0.0,61,0.00,,,0.00,WUHU21623XXSP,2013-04-21 12:32:00,
2013-04-21 08:37:00,43.2,30.6,0.00,North,0,0.0,0.0,61,0.00,,,0.00,WUHU21623XXSP,2013-04-21 12:37:00,
2013-04-21 08:42:00,43.5,30.8,0.00,North,0,0.0,0.0,61,0.00,,,0.00,WUHU21623XXSP,2013-04-21 12:42:00,
2013-04-21 08:47:00,43.9,30.7,0.00,North,0,0.0,0.0,60,0.00,,,0.00,WUHU21623XXSP,2013-04-21 12:47:00,
2013-04-21 08:52:00,44.2,31.1,0.00,North,0,0.0,0.0,60,0.00,,,0.00,WUHU21623XXSP,2013-04-21 12:52:00,
2013-04-21 08:57:00,44.4,31.5,0.00,North,0,0.0,0.0,60,0.00,,,0.00,WUHU21623XXSP,2013-04-21 12:57:00,
2013-04-21 09:02:00,44.6,31.2,0.00,North,0,0.0,0.0,59,0.00,,,0.00,WUHU21623XXSP,2013-04-21 13:02:00,
2013-04-21 09:07:00,45.1,31.7,0.00,North,0,0.0,0.0,59,0.00,,,0.00,WUHU21623XXSP,2013-04-21 13:07:00,
2013-04-21 09:12:00,45.5,31.6,0.00,North,0,0.0,0.0,58,0.00,,,0.00,WUHU21623XXSP,2013-04-21 13:12:00,
2013-04-21 09:17:00,46.0,31.6,0.00,North,0,0.0,0.0,57,0.00,,,0.00,WUHU21623XXSP,2013-04-21 13:17:00,
2013-04-21 09:22:00,46.6,32.5,0.00,North,0,0.0,0.0,58,0.00,,,0.00,WUHU21623XXSP,2013-04-21 13:22:00,
2013-04-21 09:27:00,47.1,32.6,0.00,North,0,0.0,0.0,57,0.00,,,0.00,WUHU21623XXSP,2013-04-21 13:27:00,
2013-04-21 09:32:00,47.8,33.8,0.00,North,0,0.0,0.0,58,0.00,,,0.00,WUHU21623XXSP,2013-04-21 13:32:00,
2013-04-21 09:37:00,48.2,33.2,0.00,North,0,0.0,0.0,56,0.00,,,0.00,WUHU21623XXSP,2013-04-21 13:37:00,
2013-04-21 09:42:00,48.4,33.4,0.00,North,0,0.0,0.0,56,0.00,,,0.00,WUHU21623XXSP,2013-04-21 13:42:00,
2013-04-21 09:47:00,48.7,33.7,0.00,North,0,0.0,0.0,56,0.00,,,0.00,WUHU21623XXSP,2013-04-21 13:47:00,
2013-04-21 09:52:00,49.1,33.7,0.00,North,0,0.0,0.0,56,0.00,,,0.00,WUHU21623XXSP,2013-04-21 13:52:00,
2013-04-21 09:57:00,49.6,34.2,0.00,North,0,0.0,0.0,55,0.00,,,0.00,WUHU21623XXSP,2013-04-21 13:57:00,
2013-04-21 10:02:00,49.6,33.6,0.00,North,0,0.0,0.0,54,0.00,,,0.00,WUHU21623XXSP,2013-04-21 14:02:00,
2013-04-21 10:07:00,49.8,34.3,0.00,North,0,0.0,0.0,55,0.00,,,0.00,WUHU21623XXSP,2013-04-21 14:07:00,
2013-04-21 10:12:00,50.2,34.1,0.00,North,0,0.0,0.0,54,0.00,,,0.00,WUHU21623XXSP,2013-04-21 14:12:00,
2013-04-21 10:17:00,50.2,33.7,0.00,North,0,0.0,0.0,54,0.00,,,0.00,WUHU21623XXSP,2013-04-21 14:17:00,
2013-04-21 10:22:00,50.4,34.3,0.00,North,0,0.0,0.0,54,0.00,,,0.00,WUHU21623XXSP,2013-04-21 14:22:00,
2013-04-21 10:27:00,50.7,34.6,0.00,North,0,0.0,0.0,54,0.00,,,0.00,WUHU21623XXSP,2013-04-21 14:27:00,
2013-04-21 10:32:00,50.7,34.2,0.00,North,0,0.0,0.0,53,0.00,,,0.00,WUHU21623XXSP,2013-04-21 14:32:00,
2013-04-21 10:37:00,51.1,35.0,0.00,North,0,0.0,0.0,54,0.00,,,0.00,WUHU21623XXSP,2013-04-21 14:37:00,
2013-04-21 10:42:00,51.1,34.5,0.00,North,0,0.0,0.0,53,0.00,,,0.00,WUHU21623XXSP,2013-04-21 14:42:00,
2013-04-21 10:47:00,51.3,34.2,0.00,North,0,0.0,0.0,52,0.00,,,0.00,WUHU21623XXSP,2013-04-21 14:47:00,
2013-04-21 10:52:00,51.3,33.8,0.00,North,0,0.0,0.0,52,0.00,,,0.00,WUHU21623XXSP,2013-04-21 14:52:00,
2013-04-21 10:57:00,51.6,34.8,0.00,North,0,0.0,0.0,52,0.00,,,0.00,WUHU21623XXSP,2013-04-21 14:57:00,
2013-04-21 11:02:00,51.8,34.7,0.00,North,0,0.0,0.0,52,0.00,,,0.00,WUHU21623XXSP,2013-04-21 15:02:00,
2013-04-21 11:07:00,51.8,34.7,0.00,North,0,0.0,0.0,52,0.00,,,0.00,WUHU21623XXSP,2013-04-21 15:07:00,
2013-04-21 11:12:00,52.2,35.0,0.00,North,0,0.0,0.0,52,0.00,,,0.00,WUHU21623XXSP,2013-04-21 15:12:00,
2013-04-21 11:17:00,52.0,34.0,0.00,North,0,0.0,0.0,50,0.00,,,0.00,WUHU21623XXSP,2013-04-21 15:17:00,
2013-04-21 11:22:00,52.0,34.0,0.00,North,0,0.0,0.0,50,0.00,,,0.00,WUHU21623XXSP,2013-04-21 15:22:00,
2013-04-21 11:27:00,52.0,34.0,0.00,North,0,0.0,0.0,50,0.00,,,0.00,WUHU21623XXSP,2013-04-21 15:27:00,
2013-04-21 11:32:00,52.2,34.0,0.00,North,0,0.0,0.0,50,0.00,,,0.00,WUHU21623XXSP,2013-04-21 15:32:00,
2013-04-21 11:37:00,52.2,34.1,0.00,North,0,0.0,0.0,50,0.00,,,0.00,WUHU21623XXSP,2013-04-21 15:37:00,
2013-04-21 11:42:00,52.5,34.4,0.00,North,0,0.0,0.0,50,0.00,,,0.00,WUHU21623XXSP,2013-04-21 15:42:00,
2013-04-21 11:47:00,52.9,34.8,0.00,North,0,0.0,0.0,50,0.00,,,0.00,WUHU21623XXSP,2013-04-21 15:47:00,
2013-04-21 11:52:00,52.9,34.2,0.00,North,0,0.0,0.0,49,0.00,,,0.00,WUHU21623XXSP,2013-04-21 15:52:00,
2013-04-21 11:57:00,53.4,35.3,0.00,North,0,0.0,0.0,50,0.00,,,0.00,WUHU21623XXSP,2013-04-21 15:57:00,
2013-04-21 12:02:00,53.4,35.3,0.00,North,0,0.0,0.0,50,0.00,,,0.00,WUHU21623XXSP,2013-04-21 16:02:00,
2013-04-21 12:07:00,54.0,35.7,0.00,North,0,0.0,0.0,50,0.00,,,0.00,WUHU21623XXSP,2013-04-21 16:07:00,
2013-04-21 12:12:00,54.0,34.6,0.00,North,0,0.0,0.0,48,0.00,,,0.00,WUHU21623XXSP,2013-04-21 16:12:00,
2013-04-21 12:17:00,53.8,34.6,0.00,North,0,0.0,0.0,48,0.00,,,0.00,WUHU21623XXSP,2013-04-21 16:17:00,
2013-04-21 12:22:00,53.8,34.5,0.00,North,0,0.0,0.0,48,0.00,,,0.00,WUHU21623XXSP,2013-04-21 16:22:00,
2013-04-21 12:27:00,54.1,34.8,0.00,North,0,0.0,0.0,48,0.00,,,0.00,WUHU21623XXSP,2013-04-21 16:27:00,
2013-04-21 12:32:00,54.1,34.2,0.00,North,0,0.0,0.0,47,0.00,,,0.00,WUHU21623XXSP,2013-04-21 16:32:00,
2013-04-21 12:37:00,54.3,35.0,0.00,North,0,0.0,0.0,48,0.00,,,0.00,WUHU21623XXSP,2013-04-21 16:37:00,
2013-04-21 12:43:00,54.7,35.3,0.00,North,0,0.0,0.0,48,0.00,,,0.00,WUHU21623XXSP,2013-04-21 16:43:00,
2013-04-21 12:48:00,55.0,36.2,0.00,North,0,0.0,0.0,49,0.00,,,0.00,WUHU21623XXSP,2013-04-21 16:48:00,
2013-04-21 12:53:00,55.0,35.6,0.00,North,0,0.0,0.0,48,0.00,,,0.00,WUHU21623XXSP,2013-04-21 16:53:00,
2013-04-21 12:58:00,55.2,35.8,0.00,North,0,0.0,0.0,48,0.00,,,0.00,WUHU21623XXSP,2013-04-21 16:58:00,
2013-04-21 13:03:00,55.4,35.9,0.00,North,0,0.0,0.0,48,0.00,,,0.00,WUHU21623XXSP,2013-04-21 17:03:00,
2013-04-21 13:08:00,55.8,35.9,0.00,North,0,0.0,0.0,49,0.00,,,0.00,WUHU21623XXSP,2013-04-21 17:08:00,
2013-04-21 13:13:00,55.9,35.9,0.00,North,0,0.0,0.0,47,0.00,,,0.00,WUHU21623XXSP,2013-04-21 17:13:00,
2013-04-21 13:18:00,55.9,35.9,0.00,North,0,0.0,0.0,47,0.00,,,0.00,WUHU21623XXSP,2013-04-21 17:18:00,
2013-04-21 13:23:00,55.9,35.9,0.00,North,0,0.0,0.0,47,0.00,,,0.00,WUHU21623XXSP,2013-04-21 17:23:00,
2013-04-21 13:28:00,55.6,35.5,0.00,North,0,0.0,0.0,47,0.00,,,0.00,WUHU21623XXSP,2013-04-21 17:28:00,
2013-04-21 13:33:00,55.6,35.5,0.00,North,0,0.0,0.0,47,0.00,,,0.00,WUHU21623XXSP,2013-04-21 17:33:00,
2013-04-21 13:38:00,55.6,35.5,0.00,North,0,0.0,0.0,48,0.00,,,0.00,WUHU21623XXSP,2013-04-21 17:38:00,
2013-04-21 13:43:00,55.6,35.5,0.00,North,0,0.0,0.0,47,0.00,,,0.00,WUHU21623XXSP,2013-04-21 17:43:00,
2013-04-21 13:48:00,55.6,35.5,0.00,North,0,0.0,0.0,47,0.00,,,0.00,WUHU21623XXSP,2013-04-21 17:48:00,
2013-04-21 13:53:00,55.6,36.1,0.00,North,0,0.0,0.0,48,0.00,,,0.00,WUHU21623XXSP,2013-04-21 17:53:00,
2013-04-21 13:58:00,55.8,35.7,0.00,North,0,0.0,0.0,47,0.00,,,0.00,WUHU21623XXSP,2013-04-21 17:58:00,
2013-04-21 14:03:00,55.9,36.4,0.00,North,0,0.0,0.0,48,0.00,,,0.00,WUHU21623XXSP,2013-04-21 18:03:00,
2013-04-21 14:08:00,55.9,36.4,0.00,North,0,0.0,0.0,47,0.00,,,0.00,WUHU21623XXSP,2013-04-21 18:08:00,
2013-04-21 14:13:00,55.9,35.9,0.00,North,0,0.0,0.0,47,0.00,,,0.00,WUHU21623XXSP,2013-04-21 18:13:00,
2013-04-21 14:18:00,55.9,35.9,0.00,North,0,0.0,0.0,47,0.00,,,0.00,WUHU21623XXSP,2013-04-21 18:18:00,
2013-04-21 14:23:00,55.8,35.1,0.00,North,0,0.0,0.0,46,0.00,,,0.00,WUHU21623XXSP,2013-04-21 18:23:00,
2013-04-21 14:28:00,55.9,35.9,0.00,North,0,0.0,0.0,47,0.00,,,0.00,WUHU21623XXSP,2013-04-21 18:28:00,
2013-04-21 14:33:00,55.9,35.9,0.00,North,0,0.0,0.0,47,0.00,,,0.00,WUHU21623XXSP,2013-04-21 18:33:00,
2013-04-21 14:38:00,55.9,35.3,0.00,North,0,0.0,0.0,46,0.00,,,0.00,WUHU21623XXSP,2013-04-21 18:38:00,
2013-04-21 14:43:00,55.8,35.1,0.00,North,0,0.0,0.0,46,0.00,,,0.00,WUHU21623XXSP,2013-04-21 18:43:00,
2013-04-21 14:48:00,55.8,35.7,0.00,North,0,0.0,0.0,47,0.00,,,0.00,WUHU21623XXSP,2013-04-21 18:48:00,
2013-04-21 14:53:00,55.8,34.6,0.00,North,0,0.0,0.0,45,0.00,,,0.00,WUHU21623XXSP,2013-04-21 18:53:00,
2013-04-21 14:58:00,55.8,35.1,0.00,North,0,0.0,0.0,46,0.00,,,0.00,WUHU21623XXSP,2013-04-21 18:58:00,
2013-04-21 15:03:00,55.8,35.1,0.00,North,0,0.0,0.0,46,0.00,,,0.00,WUHU21623XXSP,2013-04-21 19:03:00,
2013-04-21 15:08:00,55.9,35.7,0.00,North,0,0.0,0.0,47,0.00,,,0.00,WUHU21623XXSP,2013-04-21 19:08:00,
2013-04-21 15:13:00,55.9,35.9,0.00,North,0,0.0,0.0,47,0.00,,,0.00,WUHU21623XXSP,2013-04-21 19:13:00,
2013-04-21 15:18:00,55.9,35.9,0.00,North,0,0.0,0.0,47,0.00,,,0.00,WUHU21623XXSP,2013-04-21 19:18:00,
2013-04-21 15:23:00,56.3,35.5,0.00,North,0,0.0,0.0,46,0.00,,,0.00,WUHU21623XXSP,2013-04-21 19:23:00,
2013-04-21 15:28:00,56.5,35.8,0.00,North,0,0.0,0.0,46,0.00,,,0.00,WUHU21623XXSP,2013-04-21 19:28:00,
2013-04-21 15:33:00,56.7,36.0,0.00,North,0,0.0,0.0,46,0.00,,,0.00,WUHU21623XXSP,2013-04-21 19:33:00,
2013-04-21 15:38:00,57.0,35.8,0.00,North,0,0.0,0.0,45,0.00,,,0.00,WUHU21623XXSP,2013-04-21 19:38:00,
2013-04-21 15:43:00,57.2,36.0,0.00,North,0,0.0,0.0,45,0.00,,,0.00,WUHU21623XXSP,2013-04-21 19:43:00,
2013-04-21 15:48:00,57.0,35.8,0.00,North,0,0.0,0.0,45,0.00,,,0.00,WUHU21623XXSP,2013-04-21 19:48:00,
2013-04-21 15:53:00,57.0,35.2,0.00,North,0,0.0,0.0,44,0.00,,,0.00,WUHU21623XXSP,2013-04-21 19:53:00,
2013-04-21 15:58:00,57.4,35.5,0.00,North,0,0.0,0.0,44,0.00,,,0.00,WUHU21623XXSP,2013-04-21 19:58:00,
2013-04-21 16:03:00,57.4,35.5,0.00,North,0,0.0,0.0,44,0.00,,,0.00,WUHU21623XXSP,2013-04-21 20:03:00,
2013-04-21 16:08:00,57.4,35.0,0.00,North,0,0.0,0.0,43,0.00,,,0.00,WUHU21623XXSP,2013-04-21 20:08:00,
2013-04-21 16:13:00,57.4,35.5,0.00,North,0,0.0,0.0,44,0.00,,,0.00,WUHU21623XXSP,2013-04-21 20:13:00,
2013-04-21 16:18:00,57.6,36.3,0.00,North,0,0.0,0.0,45,0.00,,,0.00,WUHU21623XXSP,2013-04-21 20:18:00,
2013-04-21 16:23:00,57.7,35.9,0.00,North,0,0.0,0.0,44,0.00,,,0.00,WUHU21623XXSP,2013-04-21 20:23:00,
2013-04-21 16:28:00,57.7,35.9,0.00,North,0,0.0,0.0,44,0.00,,,0.00,WUHU21623XXSP,2013-04-21 20:28:00,
2013-04-21 16:33:00,57.6,35.7,0.00,North,0,0.0,0.0,44,0.00,,,0.00,WUHU21623XXSP,2013-04-21 20:33:00,
2013-04-21 16:38:00,57.7,35.3,0.00,North,0,0.0,0.0,43,0.00,,,0.00,WUHU21623XXSP,2013-04-21 20:38:00,
2013-04-21 16:43:00,57.7,35.3,0.00,North,0,0.0,0.0,43,0.00,,,0.00,WUHU21623XXSP,2013-04-21 20:43:00,
2013-04-21 16:48:00,57.7,35.3,0.00,North,0,0.0,0.0,43,0.00,,,0.00,WUHU21623XXSP,2013-04-21 20:48:00,
2013-04-21 16:53:00,57.7,35.3,0.00,North,0,0.0,0.0,43,0.00,,,0.00,WUHU21623XXSP,2013-04-21 20:53:00,
2013-04-21 16:58:00,57.7,35.3,0.00,North,0,0.0,0.0,43,0.00,,,0.00,WUHU21623XXSP,2013-04-21 20:58:00,
2013-04-21 17:03:00,57.6,35.1,0.00,North,0,0.0,0.0,43,0.00,,,0.00,WUHU21623XXSP,2013-04-21 21:03:00,
2013-04-21 17:08:00,57.7,35.3,0.00,North,0,0.0,0.0,43,0.00,,,0.00,WUHU21623XXSP,2013-04-21 21:08:00,
2013-04-21 17:13:00,57.6,35.1,0.00,North,0,0.0,0.0,43,0.00,,,0.00,WUHU21623XXSP,2013-04-21 21:13:00,
2013-04-21 17:18:00,57.4,35.0,0.00,North,0,0.0,0.0,43,0.00,,,0.00,WUHU21623XXSP,2013-04-21 21:18:00,
2013-04-21 17:23:00,57.4,35.0,0.00,North,0,0.0,0.0,43,0.00,,,0.00,WUHU21623XXSP,2013-04-21 21:23:00,
2013-04-21 17:28:00,57.2,35.0,0.00,North,0,0.0,0.0,43,0.00,,,0.00,WUHU21623XXSP,2013-04-21 21:28:00,
2013-04-21 17:33:00,57.0,34.6,0.00,North,0,0.0,0.0,43,0.00,,,0.00,WUHU21623XXSP,2013-04-21 21:33:00,
2013-04-21 17:38:00,57.0,35.2,0.00,North,0,0.0,0.0,44,0.00,,,0.00,WUHU21623XXSP,2013-04-21 21:38:00,
2013-04-21 17:43:00,56.8,34.6,0.00,North,0,0.0,0.0,43,0.00,,,0.00,WUHU21623XXSP,2013-04-21 21:43:00,
2013-04-21 17:48:00,56.8,34.5,0.00,North,0,0.0,0.0,43,0.00,,,0.00,WUHU21623XXSP,2013-04-21 21:48:00,
2013-04-21 17:53:00,56.8,35.0,0.00,North,0,0.0,0.0,44,0.00,,,0.00,WUHU21623XXSP,2013-04-21 21:53:00,
2013-04-21 17:58:00,56.8,35.0,0.00,North,0,0.0,0.0,44,0.00,,,0.00,WUHU21623XXSP,2013-04-21 21:58:00,
2013-04-21 18:03:00,56.5,34.7,0.00,North,0,0.0,0.0,44,0.00,,,0.00,WUHU21623XXSP,2013-04-21 22:03:00,
2013-04-21 18:08:00,56.5,34.1,0.00,North,0,0.0,0.0,43,0.00,,,0.00,WUHU21623XXSP,2013-04-21 22:08:00,
2013-04-21 18:13:00,56.3,34.0,0.00,North,0,0.0,0.0,43,0.00,,,0.00,WUHU21623XXSP,2013-04-21 22:13:00,
2013-04-21 18:18:00,56.3,34.0,0.00,North,0,0.0,0.0,43,0.00,,,0.00,WUHU21623XXSP,2013-04-21 22:18:00,
2013-04-21 18:23:00,56.1,34.4,0.00,North,0,0.0,0.0,44,0.00,,,0.00,WUHU21623XXSP,2013-04-21 22:23:00,
2013-04-21 18:28:00,55.9,34.2,0.00,North,0,0.0,0.0,44,0.00,,,0.00,WUHU21623XXSP,2013-04-21 22:28:00,
2013-04-21 18:33:00,55.9,34.2,0.00,North,0,0.0,0.0,44,0.00,,,0.00,WUHU21623XXSP,2013-04-21 22:33:00,
2013-04-21 18:38:00,55.8,34.0,0.00,North,0,0.0,0.0,44,0.00,,,0.00,WUHU21623XXSP,2013-04-21 22:38:00,
2013-04-21 18:43:00,55.6,34.0,0.00,North,0,0.0,0.0,44,0.00,,,0.00,WUHU21623XXSP,2013-04-21 22:43:00,
2013-04-21 18:48:00,55.2,33.5,0.00,North,0,0.0,0.0,44,0.00,,,0.00,WUHU21623XXSP,2013-04-21 22:48:00,
2013-04-21 18:53:00,55.2,33.5,0.00,North,0,0.0,0.0,44,0.00,,,0.00,WUHU21623XXSP,2013-04-21 22:53:00,
2013-04-21 18:58:00,55.0,33.4,0.00,North,0,0.0,0.0,44,0.00,,,0.00,WUHU21623XXSP,2013-04-21 22:58:00,
2013-04-21 19:03:00,54.7,33.6,0.00,North,0,0.0,0.0,45,0.00,,,0.00,WUHU21623XXSP,2013-04-21 23:03:00,
2013-04-21 19:08:00,54.5,33.4,0.00,North,0,0.0,0.0,45,0.00,,,0.00,WUHU21623XXSP,2013-04-21 23:08:00,
2013-04-21 19:13:00,54.3,33.3,0.00,North,0,0.0,0.0,45,0.00,,,0.00,WUHU21623XXSP,2013-04-21 23:13:00,
2013-04-21 19:18:00,54.1,33.7,0.00,North,0,0.0,0.0,46,0.00,,,0.00,WUHU21623XXSP,2013-04-21 23:18:00,
2013-04-21 19:23:00,54.1,33.7,0.00,North,0,0.0,0.0,46,0.00,,,0.00,WUHU21623XXSP,2013-04-21 23:23:00,
2013-04-21 19:28:00,53.8,33.9,0.00,North,0,0.0,0.0,47,0.00,,,0.00,WUHU21623XXSP,2013-04-21 23:28:00,
2013-04-21 19:33:00,53.4,33.6,0.00,North,0,0.0,0.0,47,0.00,,,0.00,WUHU21623XXSP,2013-04-21 23:33:00,
2013-04-21 19:38:00,53.4,34.1,0.00,North,0,0.0,0.0,48,0.00,,,0.00,WUHU21623XXSP,2013-04-21 23:38:00,
2013-04-21 19:43:00,53.2,34.0,0.00,North,0,0.0,0.0,48,0.00,,,0.00,WUHU21623XXSP,2013-04-21 23:43:00,
2013-04-21 19:48:00,52.9,33.7,0.00,North,0,0.0,0.0,48,0.00,,,0.00,WUHU21623XXSP,2013-04-21 23:48:00,
2013-04-21 19:53:00,52.9,33.7,0.00,North,0,0.0,0.0,48,0.00,,,0.00,WUHU21623XXSP,2013-04-21 23:53:00,
2013-04-21 19:58:00,52.5,33.3,0.00,North,0,0.0,0.0,48,0.00,,,0.00,WUHU21623XXSP,2013-04-21 23:58:00,
2013-04-21 20:03:00,52.3,33.7,0.00,North,0,0.0,0.0,49,0.00,,,0.00,WUHU21623XXSP,2013-04-22 00:03:00,
2013-04-21 20:08:00,52.0,33.4,0.00,North,0,0.0,0.0,49,0.00,,,0.00,WUHU21623XXSP,2013-04-22 00:08:00,
2013-04-21 20:13:00,51.6,33.6,0.00,North,0,0.0,0.0,50,0.00,,,0.00,WUHU21623XXSP,2013-04-22 00:13:00,
2013-04-21 20:18:00,51.4,33.6,0.00,North,0,0.0,0.0,50,0.00,,,0.00,WUHU21623XXSP,2013-04-22 00:18:00,
2013-04-21 20:23:00,51.4,33.5,0.00,North,0,0.0,0.0,50,0.00,,,0.00,WUHU21623XXSP,2013-04-22 00:23:00,
2013-04-21 20:28:00,51.1,33.6,0.00,North,0,0.0,0.0,51,0.00,,,0.00,WUHU21623XXSP,2013-04-22 00:28:00,
2013-04-21 20:34:00,50.9,33.4,0.00,North,0,0.0,0.0,51,0.00,,,0.00,WUHU21623XXSP,2013-04-22 00:34:00,
2013-04-21 20:39:00,50.5,33.1,0.00,North,0,0.0,0.0,51,0.00,,,0.00,WUHU21623XXSP,2013-04-22 00:39:00,
2013-04-21 20:44:00,50.5,33.1,0.00,North,0,0.0,0.0,51,0.00,,,0.00,WUHU21623XXSP,2013-04-22 00:44:00,
2013-04-21 20:49:00,50.2,33.4,0.00,North,0,0.0,0.0,52,0.00,,,0.00,WUHU21623XXSP,2013-04-22 00:49:00,
2013-04-21 20:54:00,50.0,33.2,0.00,North,0,0.0,0.0,52,0.00,,,0.00,WUHU21623XXSP,2013-04-22 00:54:00,
2013-04-21 20:59:00,49.8,32.9,0.00,North,0,0.0,0.0,52,0.00,,,0.00,WUHU21623XXSP,2013-04-22 00:59:00,
2013-04-21 21:04:00,49.6,32.7,0.00,North,0,0.0,0.0,52,0.00,,,0.00,WUHU21623XXSP,2013-04-22 01:04:00,
2013-04-21 21:09:00,49.3,32.5,0.00,North,0,0.0,0.0,52,0.00,,,0.00,WUHU21623XXSP,2013-04-22 01:09:00,
2013-04-21 21:14:00,49.1,32.2,0.00,North,0,0.0,0.0,52,0.00,,,0.00,WUHU21623XXSP,2013-04-22 01:14:00,
2013-04-21 21:19:00,48.9,32.0,0.00,North,0,0.0,0.0,52,0.00,,,0.00,WUHU21623XXSP,2013-04-22 01:19:00,
2013-04-21 21:24:00,48.7,31.8,0.00,North,0,0.0,0.0,52,0.00,,,0.00,WUHU21623XXSP,2013-04-22 01:24:00,
2013-04-21 21:29:00,48.7,31.8,0.00,North,0,0.0,0.0,52,0.00,,,0.00,WUHU21623XXSP,2013-04-22 01:29:00,
2013-04-21 21:34:00,48.6,32.1,0.00,North,0,0.0,0.0,53,0.00,,,0.00,WUHU21623XXSP,2013-04-22 01:34:00,
2013-04-21 21:39:00,48.4,31.5,0.00,North,0,0.0,0.0,52,0.00,,,0.00,WUHU21623XXSP,2013-04-22 01:39:00,
2013-04-21 21:44:00,48.0,31.6,0.00,North,0,0.0,0.0,53,0.00,,,0.00,WUHU21623XXSP,2013-04-22 01:44:00,
2013-04-21 21:49:00,48.0,31.6,0.00,North,0,0.0,0.0,53,0.00,,,0.00,WUHU21623XXSP,2013-04-22 01:49:00,
2013-04-21 21:54:00,47.8,31.4,0.00,North,0,0.0,0.0,54,0.00,,,0.00,WUHU21623XXSP,2013-04-22 01:54:00,
2013-04-21 21:59:00,47.5,31.6,0.00,North,0,0.0,0.0,54,0.00,,,0.00,WUHU21623XXSP,2013-04-22 01:59:00,
2013-04-21 22:04:00,47.3,31.4,0.00,North,0,0.0,0.0,54,0.00,,,0.00,WUHU21623XXSP,2013-04-22 02:04:00,
2013-04-21 22:09:00,47.3,31.4,0.00,North,0,0.0,0.0,54,0.00,,,0.00,WUHU21623XXSP,2013-04-22 02:09:00,
2013-04-21 22:14:00,47.1,31.7,0.00,North,0,0.0,0.0,55,0.00,,,0.00,WUHU21623XXSP,2013-04-22 02:14:00,
2013-04-21 22:19:00,46.9,32.0,0.00,North,0,0.0,0.0,56,0.00,,,0.00,WUHU21623XXSP,2013-04-22 02:19:00,
2013-04-21 22:24:00,46.8,31.8,0.00,North,0,0.0,0.0,56,0.00,,,0.00,WUHU21623XXSP,2013-04-22 02:24:00,
2013-04-21 22:29:00,46.6,31.6,0.00,North,0,0.0,0.0,56,0.00,,,0.00,WUHU21623XXSP,2013-04-22 02:29:00,
2013-04-21 22:34:00,46.6,31.6,0.00,North,0,0.0,0.0,56,0.00,,,0.00,WUHU21623XXSP,2013-04-22 02:34:00,
2013-04-21 22:39:00,46.2,31.3,0.00,North,0,0.0,0.0,56,0.00,,,0.00,WUHU21623XXSP,2013-04-22 02:39:00,
2013-04-21 22:44:00,46.2,31.7,0.00,North,0,0.0,0.0,57,0.00,,,0.00,WUHU21623XXSP,2013-04-22 02:44:00,
2013-04-21 22:49:00,46.0,31.6,0.00,North,0,0.0,0.0,57,0.00,,,0.00,WUHU21623XXSP,2013-04-22 02:49:00,
2013-04-21 22:54:00,45.9,31.4,0.00,North,0,0.0,0.0,57,0.00,,,0.00,WUHU21623XXSP,2013-04-22 02:54:00,
2013-04-21 22:59:00,45.7,31.3,0.00,North,0,0.0,0.0,57,0.00,,,0.00,WUHU21623XXSP,2013-04-22 02:59:00,
2013-04-21 23:04:00,45.5,31.1,0.00,North,0,0.0,0.0,57,0.00,,,0.00,WUHU21623XXSP,2013-04-22 03:04:00,
2013-04-21 23:09:00,45.3,30.9,0.00,North,0,0.0,0.0,57,0.00,,,0.00,WUHU21623XXSP,2013-04-22 03:09:00,
2013-04-21 23:14:00,45.1,30.8,0.00,North,0,0.0,0.0,57,0.00,,,0.00,WUHU21623XXSP,2013-04-22 03:14:00,
2013-04-21 23:19:00,44.8,30.9,0.00,North,0,0.0,0.0,58,0.00,,,0.00,WUHU21623XXSP,2013-04-22 03:19:00,
2013-04-21 23:24:00,44.4,30.6,0.00,North,0,0.0,0.0,58,0.00,,,0.00,WUHU21623XXSP,2013-04-22 03:24:00,
2013-04-21 23:29:00,44.2,30.4,0.00,North,0,0.0,0.0,58,0.00,,,0.00,WUHU21623XXSP,2013-04-22 03:29:00,
2013-04-21 23:34:00,44.1,30.6,0.00,North,0,0.0,0.0,59,0.00,,,0.00,WUHU21623XXSP,2013-04-22 03:34:00,
2013-04-21 23:39:00,43.9,30.5,0.00,North,0,0.0,0.0,59,0.00,,,0.00,WUHU21623XXSP,2013-04-22 03:39:00,
2013-04-21 23:44:00,43.5,30.1,0.00,North,0,0.0,0.0,59,0.00,,,0.00,WUHU21623XXSP,2013-04-22 03:44:00,
2013-04-21 23:49:00,43.3,30.4,0.00,North,0,0.0,0.0,60,0.00,,,0.00,WUHU21623XXSP,2013-04-22 03:49:00,
2013-04-21 23:54:00,43.2,30.2,0.00,North,0,0.0,0.0,60,0.00,,,0.00,WUHU21623XXSP,2013-04-22 03:54:00,
2013-04-21 23:59:00,42.8,30.0,0.00,North,0,0.0,0.0,60,0.00,,,0.00,WUHU21623XXSP,2013-04-22 03:59:00,